| time (UTC) | temp F | wind direction | speed MPH | gust MPH | rain 1hr in | rain 24hr in | rain mn in | humidity % | barometer mb |
| 20260509043512 | 72 | 230 | 1.0 | 7.0 | 0.00 | 0.11 | 0.11 | 78 | 1010.2 |
| 20260509043004 | 72 | 206 | 3.0 | 4.0 | 0.00 | 0.11 | 0.11 | 78 | 1009.9 |
| 20260509042505 | 72 | 210 | 1.0 | 3.0 | 0.00 | 0.11 | 0.11 | 77 | 1010.4 |
| 20260509042003 | 72 | 242 | 0.0 | 3.0 | 0.00 | 0.11 | 0.11 | 77 | 1010.4 |
| 20260509041509 | 72 | 151 | 1.0 | 3.0 | 0.00 | 0.11 | 0.11 | 77 | 1010.5 |
| 20260509041005 | 72 | 272 | 0.0 | 2.0 | 0.00 | 0.11 | 0.11 | 77 | 1010.4 |
| 20260509040504 | 72 | 230 | 1.0 | 2.0 | 0.00 | 0.11 | 0.11 | 77 | 1010.2 |
| 20260509040012 | 72 | 119 | 1.0 | 2.0 | 0.00 | 0.11 | 0.11 | 77 | 1010.4 |
| 20260509035508 | 72 | 119 | 0.0 | 2.0 | 0.00 | 0.11 | 0.11 | 76 | 1010.7 |
| 20260509035004 | 72 | 102 | 0.0 | 2.0 | 0.00 | 0.11 | 0.11 | 77 | 1010.7 |
| 20260509034536 | 72 | 44 | 0.0 | 3.0 | 0.00 | 0.11 | 0.11 | 77 | 1011.1 |
| 20260509034007 | 72 | 44 | 1.0 | 3.0 | 0.00 | 0.11 | 0.11 | 77 | 1011.4 |
| 20260509033509 | 72 | 244 | 0.0 | 2.0 | 0.00 | 0.11 | 0.11 | 77 | 1011.3 |
| 20260509033024 | 72 | 244 | 0.0 | 2.0 | 0.00 | 0.11 | 0.11 | 77 | 1011.2 |
| 20260509032509 | 72 | 244 | 0.0 | 2.0 | 0.00 | 0.11 | 0.11 | 77 | 1010.7 |
| 20260509032015 | 72 | 151 | 0.0 | 2.0 | 0.00 | 0.11 | 0.11 | 77 | 1010.6 |
| 20260509031506 | 72 | 71 | 0.0 | 3.0 | 0.00 | 0.11 | 0.11 | 77 | 1010.7 |
| 20260509031003 | 72 | 71 | 0.0 | 3.0 | 0.00 | 0.11 | 0.11 | 77 | 1010.7 |
| 20260509030506 | 72 | 167 | 0.0 | 3.0 | 0.00 | 0.11 | 0.11 | 77 | 1010.8 |
| 20260509030011 | 72 | 167 | 0.0 | 3.0 | 0.00 | 0.11 | 0.11 | 77 | 1010.8 |
| 20260509025503 | 72 | 167 | 0.0 | 3.0 | 0.00 | 0.11 | 0.11 | 77 | 1010.7 |
| 20260509025005 | 72 | 167 | 0.0 | 2.0 | 0.00 | 0.11 | 0.11 | 77 | 1010.4 |
| 20260509024514 | 72 | 157 | 0.0 | 2.0 | 0.00 | 0.11 | 0.11 | 77 | 1010.3 |
| 20260509024006 | 72 | 219 | 0.0 | 4.0 | 0.00 | 0.11 | 0.11 | 77 | 1010.1 |
| 20260509023507 | 72 | 219 | 0.0 | 4.0 | 0.00 | 0.11 | 0.11 | 77 | 1009.9 |
| 20260509023019 | 72 | 188 | 1.0 | 4.0 | 0.00 | 0.11 | 0.11 | 77 | 1009.8 |
| 20260509022506 | 72 | 206 | 1.0 | 6.0 | 0.00 | 0.11 | 0.11 | 76 | 1009.7 |
| 20260509022009 | 72 | 207 | 1.0 | 6.0 | 0.00 | 0.11 | 0.11 | 76 | 1009.5 |
| 20260509021526 | 72 | 157 | 1.0 | 4.0 | 0.00 | 0.11 | 0.11 | 76 | 1009.4 |
| 20260509021010 | 72 | 167 | 1.0 | 5.0 | 0.00 | 0.11 | 0.11 | 76 | 1009.3 |
| 20260509020516 | 72 | 161 | 2.0 | 5.0 | 0.00 | 0.11 | 0.11 | 76 | 1009.3 |
| 20260509020008 | 73 | 216 | 2.0 | 5.0 | 0.00 | 0.11 | 0.11 | 76 | 1009.3 |
| 20260509015504 | 73 | 190 | 1.0 | 5.0 | 0.00 | 0.11 | 0.11 | 75 | 1009.4 |
| 20260509015006 | 73 | 202 | 2.0 | 5.0 | 0.00 | 0.11 | 0.11 | 75 | 1009.6 |
| 20260509014515 | 73 | 166 | 1.0 | 5.0 | 0.00 | 0.11 | 0.11 | 75 | 1009.4 |
| 20260509014005 | 73 | 206 | 3.0 | 5.0 | 0.00 | 0.11 | 0.11 | 75 | 1009.4 |
| 20260509013505 | 73 | 239 | 2.0 | 5.0 | 0.00 | 0.11 | 0.11 | 74 | 1009.4 |
| 20260509013019 | 73 | 251 | 1.0 | 7.0 | 0.00 | 0.11 | 0.11 | 74 | 1009.4 |
| 20260509012506 | 73 | 225 | 3.0 | 7.0 | 0.00 | 0.11 | 0.11 | 74 | 1009.4 |
| 20260509012010 | 73 | 249 | 1.0 | 5.0 | 0.00 | 0.11 | 0.11 | 74 | 1009.6 |
| 20260509011523 | 73 | 211 | 1.0 | 5.0 | 0.00 | 0.11 | 0.11 | 73 | 1009.6 |
| 20260509011009 | 73 | 195 | 2.0 | 4.0 | 0.00 | 0.11 | 0.11 | 73 | 1009.6 |
| 20260509010509 | 73 | 199 | 1.0 | 4.0 | 0.00 | 0.11 | 0.11 | 73 | 1009.4 |
| 20260509010033 | 73 | 242 | 1.0 | 4.0 | 0.00 | 0.11 | 0.11 | 73 | 1009.3 |
| 20260509005507 | 74 | 229 | 1.0 | 7.0 | 0.00 | 0.11 | 0.11 | 72 | 1009.4 |
| 20260509005011 | 74 | 185 | 2.0 | 7.0 | 0.00 | 0.11 | 0.11 | 72 | 1009.2 |
| 20260509004512 | 74 | 220 | 1.0 | 7.0 | 0.00 | 0.11 | 0.11 | 71 | 1009.1 |
| 20260509004008 | 74 | 226 | 1.0 | 5.0 | 0.00 | 0.11 | 0.11 | 71 | 1008.9 |
| 20260509003504 | 74 | 230 | 1.0 | 4.0 | 0.00 | 0.11 | 0.11 | 71 | 1008.7 |
| 20260509003020 | 74 | 180 | 2.0 | 4.0 | 0.00 | 0.11 | 0.11 | 71 | 1008.7 |
| 20260509002508 | 74 | 157 | 1.0 | 5.0 | 0.00 | 0.11 | 0.11 | 71 | 1008.8 |
| 20260509002006 | 74 | 172 | 2.0 | 5.0 | 0.00 | 0.11 | 0.11 | 70 | 1008.9 |
| 20260509001526 | 74 | 166 | 2.0 | 7.0 | 0.00 | 0.11 | 0.11 | 70 | 1008.8 |
| 20260509001008 | 74 | 205 | 2.0 | 7.0 | 0.00 | 0.11 | 0.11 | 70 | 1008.8 |
| 20260509000506 | 74 | 153 | 2.0 | 5.0 | 0.00 | 0.11 | 0.11 | 70 | 1008.8 |
| 20260509000024 | 74 | 170 | 1.0 | 3.0 | 0.00 | 0.11 | 0.11 | 70 | 1008.9 |
| 20260508235506 | 75 | 131 | 1.0 | 7.0 | 0.00 | 0.11 | 0.11 | 69 | 1009.0 |
| 20260508235011 | 75 | 169 | 2.0 | 7.0 | 0.00 | 0.11 | 0.11 | 69 | 1009.1 |
| 20260508234528 | 75 | 167 | 1.0 | 8.0 | 0.00 | 0.11 | 0.11 | 69 | 1009.2 |
| 20260508234011 | 75 | 204 | 2.0 | 8.0 | 0.00 | 0.11 | 0.11 | 68 | 1009.2 |
| 20260508233508 | 75 | 220 | 2.0 | 8.0 | 0.00 | 0.11 | 0.11 | 68 | 1009.2 |
| 20260508233016 | 75 | 240 | 3.0 | 8.0 | 0.00 | 0.11 | 0.11 | 68 | 1009.2 |
| 20260508232505 | 75 | 221 | 4.0 | 11.0 | 0.00 | 0.11 | 0.11 | 68 | 1009.3 |
| 20260508232010 | 75 | 190 | 3.0 | 11.0 | 0.00 | 0.11 | 0.11 | 67 | 1009.4 |
| 20260508231520 | 75 | 182 | 2.0 | 7.0 | 0.00 | 0.11 | 0.11 | 67 | 1009.3 |
| 20260508231007 | 75 | 254 | 1.0 | 7.0 | 0.00 | 0.11 | 0.11 | 67 | 1009.4 |
| 20260508230510 | 76 | 184 | 2.0 | 7.0 | 0.00 | 0.11 | 0.11 | 67 | 1009.5 |
| 20260508230023 | 76 | 192 | 1.0 | 7.0 | 0.00 | 0.11 | 0.11 | 67 | 1009.6 |
| 20260508225511 | 76 | 217 | 3.0 | 5.0 | 0.00 | 0.11 | 0.11 | 67 | 1009.5 |
| 20260508225011 | 76 | 234 | 2.0 | 4.0 | 0.00 | 0.11 | 0.11 | 67 | 1009.5 |
| 20260508224535 | 75 | 112 | 1.0 | 7.0 | 0.00 | 0.11 | 0.11 | 67 | 1009.6 |
| 20260508224009 | 75 | 214 | 3.0 | 11.0 | 0.00 | 0.11 | 0.11 | 68 | 1009.6 |
| 20260508223514 | 75 | 234 | 6.0 | 11.0 | 0.00 | 0.11 | 0.11 | 67 | 1009.5 |
| 20260508223041 | 76 | 220 | 6.0 | 12.0 | 0.00 | 0.11 | 0.11 | 66 | 1009.5 |
| 20260508222513 | 76 | 223 | 7.0 | 12.0 | 0.00 | 0.11 | 0.11 | 65 | 1009.5 |
| 20260508222006 | 76 | 174 | 1.0 | 10.0 | 0.00 | 0.11 | 0.11 | 66 | 1009.4 |
| 20260508221516 | 76 | 178 | 2.0 | 12.0 | 0.00 | 0.11 | 0.11 | 65 | 1009.3 |
| 20260508221008 | 77 | 232 | 6.0 | 12.0 | 0.00 | 0.11 | 0.11 | 65 | 1009.3 |
| 20260508220508 | 77 | 225 | 2.0 | 6.0 | 0.00 | 0.11 | 0.11 | 65 | 1009.3 |
| 20260508220027 | 77 | 180 | 1.0 | 9.0 | 0.00 | 0.11 | 0.11 | 65 | 1009.2 |
| 20260508215507 | 77 | 217 | 2.0 | 9.0 | 0.00 | 0.11 | 0.11 | 66 | 1009.2 |
| 20260508215011 | 77 | 223 | 4.0 | 9.0 | 0.00 | 0.11 | 0.11 | 65 | 1009.2 |
| 20260508214547 | 77 | 160 | 2.0 | 9.0 | 0.00 | 0.11 | 0.11 | 66 | 1009.2 |
| 20260508214006 | 77 | 229 | 4.0 | 9.0 | 0.00 | 0.11 | 0.11 | 65 | 1009.3 |
| 20260508213503 | 77 | 189 | 2.0 | 8.0 | 0.00 | 0.11 | 0.11 | 65 | 1009.3 |
| 20260508213012 | 77 | 236 | 3.0 | 8.0 | 0.00 | 0.11 | 0.11 | 64 | 1009.2 |
| 20260508212504 | 77 | 199 | 3.0 | 7.0 | 0.00 | 0.11 | 0.11 | 64 | 1009.3 |
| 20260508212007 | 77 | 213 | 2.0 | 8.0 | 0.00 | 0.11 | 0.11 | 64 | 1009.4 |
| 20260508211505 | 77 | 161 | 2.0 | 8.0 | 0.00 | 0.11 | 0.11 | 64 | 1009.4 |
| 20260508211004 | 76 | 152 | 2.0 | 5.0 | 0.00 | 0.11 | 0.11 | 64 | 1009.5 |
| 20260508210503 | 76 | 257 | 2.0 | 6.0 | 0.00 | 0.11 | 0.11 | 65 | 1009.9 |
| 20260508210009 | 75 | 208 | 2.0 | 8.0 | 0.00 | 0.11 | 0.11 | 66 | 1010.1 |
| 20260508205503 | 75 | 210 | 3.0 | 8.0 | 0.00 | 0.11 | 0.11 | 66 | 1010.2 |
| 20260508205003 | 75 | 155 | 2.0 | 7.0 | 0.00 | 0.11 | 0.11 | 66 | 1010.4 |
| 20260508204507 | 75 | 161 | 1.0 | 11.0 | 0.00 | 0.11 | 0.11 | 65 | 1010.6 |
| 20260508204005 | 75 | 252 | 5.0 | 11.0 | 0.00 | 0.11 | 0.11 | 65 | 1010.9 |
| 20260508203503 | 75 | 215 | 2.0 | 10.0 | 0.00 | 0.11 | 0.11 | 64 | 1011.0 |
| 20260508203014 | 76 | 238 | 3.0 | 8.0 | 0.00 | 0.11 | 0.11 | 64 | 1011.1 |
| 20260508202504 | 76 | 195 | 3.0 | 8.0 | 0.00 | 0.11 | 0.11 | 63 | 1011.0 |
| 20260508202004 | 76 | 157 | 2.0 | 5.0 | 0.00 | 0.11 | 0.11 | 63 | 1011.0 |
| 20260508201510 | 76 | 194 | 1.0 | 6.0 | 0.00 | 0.11 | 0.11 | 64 | 1011.1 |
| 20260508201005 | 76 | 225 | 3.0 | 6.0 | 0.00 | 0.11 | 0.11 | 63 | 1011.0 |
| 20260508200504 | 77 | 238 | 3.0 | 5.0 | 0.00 | 0.11 | 0.11 | 62 | 1011.1 |
| 20260508200008 | 77 | 222 | 3.0 | 8.0 | 0.00 | 0.11 | 0.11 | 62 | 1011.2 |
| 20260508195502 | 77 | 169 | 1.0 | 8.0 | 0.00 | 0.11 | 0.11 | 63 | 1011.2 |
| 20260508195003 | 77 | 173 | 1.0 | 6.0 | 0.00 | 0.11 | 0.11 | 63 | 1011.2 |
| 20260508194506 | 77 | 244 | 2.0 | 10.0 | 0.00 | 0.11 | 0.11 | 63 | 1011.2 |
| 20260508194003 | 77 | 236 | 6.0 | 10.0 | 0.00 | 0.11 | 0.11 | 61 | 1011.3 |
| 20260508193504 | 77 | 246 | 3.0 | 8.0 | 0.00 | 0.11 | 0.11 | 61 | 1011.2 |
| 20260508193004 | 78 | 236 | 4.0 | 8.0 | 0.00 | 0.11 | 0.11 | 60 | 1011.3 |
| 20260508192507 | 78 | 181 | 3.0 | 11.0 | 0.00 | 0.11 | 0.11 | 60 | 1011.3 |
| 20260508192004 | 79 | 170 | 2.0 | 11.0 | 0.00 | 0.11 | 0.11 | 59 | 1011.3 |
| 20260508191508 | 79 | 240 | 1.0 | 10.0 | 0.00 | 0.11 | 0.11 | 60 | 1011.4 |
| 20260508191004 | 79 | 209 | 2.0 | 10.0 | 0.00 | 0.11 | 0.11 | 59 | 1011.5 |
| 20260508190504 | 79 | 211 | 4.0 | 8.0 | 0.00 | 0.11 | 0.11 | 59 | 1011.5 |
| 20260508190021 | 79 | 239 | 3.0 | 8.0 | 0.00 | 0.11 | 0.11 | 57 | 1011.5 |
| 20260508185503 | 80 | 232 | 4.0 | 8.0 | 0.00 | 0.11 | 0.11 | 57 | 1011.5 |
| 20260508185005 | 79 | 169 | 1.0 | 7.0 | 0.00 | 0.11 | 0.11 | 57 | 1011.5 |
| 20260508184521 | 78 | 223 | 2.0 | 8.0 | 0.00 | 0.11 | 0.11 | 57 | 1011.6 |
| 20260508184007 | 79 | 162 | 2.0 | 8.0 | 0.00 | 0.11 | 0.11 | 57 | 1011.6 |
| 20260508183503 | 79 | 214 | 3.0 | 8.0 | 0.00 | 0.11 | 0.11 | 57 | 1011.6 |
| 20260508183023 | 78 | 240 | 1.0 | 6.0 | 0.00 | 0.11 | 0.11 | 57 | 1011.7 |
| 20260508182504 | 79 | 257 | 3.0 | 7.0 | 0.00 | 0.11 | 0.11 | 57 | 1011.8 |
| 20260508182004 | 79 | 271 | 0.0 | 7.0 | 0.00 | 0.11 | 0.11 | 56 | 1011.9 |
| 20260508181507 | 79 | 217 | 2.0 | 4.0 | 0.00 | 0.11 | 0.11 | 56 | 1012.0 |
| 20260508181005 | 78 | 173 | 0.0 | 5.0 | 0.00 | 0.11 | 0.11 | 57 | 1012.1 |
| 20260508180504 | 78 | 188 | 2.0 | 5.0 | 0.00 | 0.11 | 0.11 | 58 | 1012.2 |
| 20260508180013 | 77 | 133 | 0.0 | 8.0 | 0.00 | 0.11 | 0.11 | 59 | 1012.1 |
| 20260508175504 | 78 | 226 | 5.0 | 8.0 | 0.00 | 0.11 | 0.11 | 56 | 1012.2 |
| 20260508175006 | 78 | 140 | 2.0 | 8.0 | 0.00 | 0.11 | 0.11 | 58 | 1012.3 |
| 20260508174512 | 77 | 164 | 2.0 | 8.0 | 0.00 | 0.11 | 0.11 | 58 | 1012.3 |
| 20260508174005 | 77 | 166 | 1.0 | 7.0 | 0.00 | 0.11 | 0.11 | 59 | 1012.3 |
| 20260508173503 | 76 | 199 | 1.0 | 7.0 | 0.00 | 0.11 | 0.11 | 60 | 1012.5 |
| 20260508173013 | 76 | 178 | 1.0 | 4.0 | 0.00 | 0.11 | 0.11 | 61 | 1012.5 |
| 20260508172504 | 75 | 214 | 0.0 | 9.0 | 0.00 | 0.11 | 0.11 | 63 | 1012.6 |
| 20260508172005 | 73 | 157 | 1.0 | 9.0 | 0.00 | 0.11 | 0.11 | 63 | 1012.9 |
| 20260508171512 | 73 | 209 | 3.0 | 9.0 | 0.00 | 0.11 | 0.11 | 64 | 1013.1 |
| 20260508171006 | 73 | 205 | 2.0 | 10.0 | 0.00 | 0.11 | 0.11 | 64 | 1013.1 |
| 20260508170505 | 73 | 216 | 5.0 | 10.0 | 0.00 | 0.11 | 0.11 | 64 | 1013.4 |
| 20260508170016 | 72 | 234 | 3.0 | 11.0 | 0.00 | 0.11 | 0.11 | 65 | 1013.6 |
| 20260508165505 | 71 | 154 | 5.0 | 11.0 | 0.00 | 0.11 | 0.11 | 66 | 1013.7 |
| 20260508165005 | 71 | 234 | 2.0 | 9.0 | 0.00 | 0.11 | 0.11 | 66 | 1013.9 |
| 20260508164521 | 70 | 225 | 4.0 | 9.0 | 0.00 | 0.11 | 0.11 | 66 | 1013.9 |
| 20260508164007 | 70 | 196 | 2.0 | 6.0 | 0.00 | 0.11 | 0.11 | 67 | 1014.0 |
| 20260508163506 | 70 | 213 | 2.0 | 6.0 | 0.00 | 0.11 | 0.11 | 67 | 1014.2 |
| 20260508163016 | 70 | 236 | 1.0 | 8.0 | 0.00 | 0.11 | 0.11 | 67 | 1014.3 |
| 20260508162506 | 69 | 190 | 3.0 | 8.0 | 0.00 | 0.11 | 0.11 | 67 | 1014.3 |
| 20260508162007 | 69 | 136 | 1.0 | 9.0 | 0.00 | 0.11 | 0.11 | 67 | 1014.3 |
| 20260508161514 | 69 | 198 | 3.0 | 9.0 | 0.00 | 0.11 | 0.11 | 67 | 1014.4 |
| 20260508161007 | 69 | 210 | 2.0 | 6.0 | 0.00 | 0.11 | 0.11 | 67 | 1014.4 |
| 20260508160509 | 69 | 207 | 1.0 | 3.0 | 0.00 | 0.11 | 0.11 | 68 | 1014.5 |
| 20260508160020 | 68 | 173 | 0.0 | 5.0 | 0.00 | 0.11 | 0.11 | 68 | 1014.5 |
| 20260508155503 | 68 | 167 | 2.0 | 5.0 | 0.00 | 0.11 | 0.11 | 68 | 1014.5 |
| 20260508155005 | 68 | 232 | 1.0 | 6.0 | 0.00 | 0.11 | 0.11 | 67 | 1014.5 |
| 20260508154517 | 68 | 279 | 3.0 | 6.0 | 0.00 | 0.11 | 0.11 | 68 | 1014.9 |
| 20260508154008 | 68 | 267 | 1.0 | 6.0 | 0.00 | 0.11 | 0.11 | 68 | 1014.9 |
| 20260508153505 | 67 | 213 | 3.0 | 6.0 | 0.00 | 0.11 | 0.11 | 69 | 1014.8 |
| 20260508153028 | 67 | 184 | 1.0 | 4.0 | 0.00 | 0.11 | 0.11 | 69 | 1014.8 |
| 20260508152507 | 67 | 219 | 1.0 | 3.0 | 0.00 | 0.11 | 0.11 | 71 | 1014.7 |
| 20260508152010 | 67 | 225 | 2.0 | 3.0 | 0.00 | 0.11 | 0.11 | 71 | 1014.8 |
| 20260508151516 | 67 | 126 | 0.0 | 4.0 | 0.00 | 0.11 | 0.11 | 72 | 1014.9 |
| 20260508151006 | 67 | 211 | 2.0 | 4.0 | 0.00 | 0.11 | 0.11 | 72 | 1014.9 |
| 20260508150506 | 66 | 211 | 1.0 | 3.0 | 0.00 | 0.11 | 0.11 | 72 | 1014.9 |
| 20260508150020 | 66 | 240 | 0.0 | 3.0 | 0.00 | 0.11 | 0.11 | 73 | 1015.0 |
| 20260508145506 | 66 | 199 | 2.0 | 4.0 | 0.00 | 0.11 | 0.11 | 74 | 1014.9 |
| 20260508145006 | 66 | 213 | 2.0 | 4.0 | 0.00 | 0.11 | 0.11 | 75 | 1014.9 |
| 20260508144527 | 65 | 222 | 1.0 | 3.0 | 0.00 | 0.11 | 0.11 | 77 | 1014.7 |
| 20260508144007 | 65 | 190 | 0.0 | 4.0 | 0.00 | 0.11 | 0.11 | 77 | 1014.7 |
| 20260508143506 | 65 | 217 | 0.0 | 5.0 | 0.00 | 0.11 | 0.11 | 77 | 1014.9 |
| 20260508143020 | 64 | 182 | 1.0 | 7.0 | 0.00 | 0.11 | 0.11 | 77 | 1015.0 |
| 20260508142505 | 64 | 277 | 3.0 | 7.0 | 0.00 | 0.11 | 0.11 | 79 | 1014.9 |
| 20260508142015 | 64 | 180 | 1.0 | 4.0 | 0.00 | 0.11 | 0.11 | 80 | 1015.1 |
| 20260508141524 | 63 | 187 | 2.0 | 4.0 | 0.00 | 0.11 | 0.11 | 81 | 1015.0 |
| 20260508141008 | 63 | 173 | 0.0 | 2.0 | 0.00 | 0.11 | 0.11 | 81 | 1015.1 |
| 20260508140507 | 62 | 187 | 0.0 | 6.0 | 0.00 | 0.11 | 0.11 | 82 | 1015.1 |
| 20260508140024 | 62 | 187 | 1.0 | 6.0 | 0.00 | 0.11 | 0.11 | 83 | 1015.1 |
| 20260508135507 | 62 | 172 | 0.0 | 2.0 | 0.00 | 0.11 | 0.11 | 84 | 1014.9 |
| 20260508135009 | 62 | 121 | 0.0 | 2.0 | 0.00 | 0.11 | 0.11 | 85 | 1015.0 |
| 20260508134521 | 61 | 157 | 0.0 | 2.0 | 0.00 | 0.11 | 0.11 | 85 | 1015.0 |
| 20260508134006 | 61 | 181 | 0.0 | 3.0 | 0.01 | 0.11 | 0.11 | 86 | 1015.0 |
| 20260508133506 | 61 | 169 | 0.0 | 3.0 | 0.04 | 0.11 | 0.11 | 86 | 1014.8 |
| 20260508133021 | 61 | 120 | 0.0 | 4.0 | 0.05 | 0.11 | 0.11 | 87 | 1014.7 |
| 20260508132510 | 60 | 202 | 0.0 | 4.0 | 0.05 | 0.11 | 0.11 | 87 | 1014.9 |
| 20260508132006 | 60 | 142 | 0.0 | 4.0 | 0.05 | 0.11 | 0.11 | 87 | 1015.0 |
| 20260508131522 | 60 | 203 | 0.0 | 3.0 | 0.05 | 0.11 | 0.11 | 87 | 1015.1 |
| 20260508131008 | 60 | 203 | 0.0 | 3.0 | 0.05 | 0.11 | 0.11 | 87 | 1015.0 |
| 20260508130506 | 60 | 157 | 0.0 | 2.0 | 0.05 | 0.11 | 0.11 | 87 | 1015.0 |
| 20260508130032 | 60 | 229 | 0.0 | 2.0 | 0.05 | 0.11 | 0.11 | 87 | 1015.0 |
| 20260508125508 | 60 | 229 | 0.0 | 2.0 | 0.05 | 0.11 | 0.11 | 87 | 1015.3 |
| 20260508125008 | 60 | 229 | 0.0 | 2.0 | 0.05 | 0.11 | 0.11 | 87 | 1015.4 |
| 20260508124524 | 60 | 219 | 0.0 | 2.0 | 0.05 | 0.11 | 0.11 | 86 | 1015.1 |
| 20260508124006 | 60 | 219 | 0.0 | 2.0 | 0.04 | 0.10 | 0.10 | 86 | 1015.0 |
| 20260508123503 | 60 | 219 | 0.0 | 2.0 | 0.01 | 0.07 | 0.07 | 87 | 1015.3 |
| 20260508123020 | 60 | 200 | 0.0 | 3.0 | 0.00 | 0.06 | 0.06 | 87 | 1015.6 |
| 20260508122503 | 60 | 194 | 0.0 | 3.0 | 0.00 | 0.06 | 0.06 | 87 | 1015.4 |
| 20260508122008 | 60 | 193 | 0.0 | 2.0 | 0.00 | 0.06 | 0.06 | 87 | 1015.2 |
| 20260508121516 | 60 | 193 | 0.0 | 2.0 | 0.00 | 0.06 | 0.06 | 87 | 1015.3 |
| 20260508121004 | 60 | 238 | 0.0 | 2.0 | 0.00 | 0.06 | 0.06 | 88 | 1015.3 |
| 20260508120504 | 60 | 238 | 1.0 | 2.0 | 0.00 | 0.06 | 0.06 | 88 | 1015.2 |
| 20260508120016 | 60 | 200 | 0.0 | 2.0 | 0.00 | 0.06 | 0.06 | 88 | 1015.0 |
| 20260508115506 | 60 | 219 | 0.0 | 2.0 | 0.00 | 0.06 | 0.06 | 88 | 1015.4 |
| 20260508115002 | 60 | 219 | 0.0 | 2.0 | 0.00 | 0.06 | 0.06 | 89 | 1015.5 |
| 20260508114508 | 60 | 200 | 0.0 | 2.0 | 0.00 | 0.06 | 0.06 | 89 | 1015.3 |
| 20260508114003 | 60 | 202 | 0.0 | 4.0 | 0.00 | 0.06 | 0.06 | 89 | 1015.0 |
| 20260508113504 | 60 | 202 | 1.0 | 4.0 | 0.00 | 0.06 | 0.06 | 89 | 1015.1 |
| 20260508113017 | 60 | 160 | 0.0 | 2.0 | 0.00 | 0.06 | 0.06 | 89 | 1015.2 |
| 20260508112506 | 60 | 160 | 0.0 | 2.0 | 0.00 | 0.06 | 0.06 | 89 | 1015.2 |
| 20260508112006 | 60 | 160 | 0.0 | 3.0 | 0.00 | 0.06 | 0.06 | 89 | 1015.0 |
| 20260508111517 | 61 | 160 | 0.0 | 3.0 | 0.00 | 0.06 | 0.06 | 89 | 1014.6 |
| 20260508111006 | 61 | 209 | 0.0 | 2.0 | 0.00 | 0.06 | 0.06 | 89 | 1014.7 |
| 20260508110506 | 61 | 318 | 0.0 | 2.0 | 0.00 | 0.06 | 0.06 | 89 | 1015.1 |
| 20260508110019 | 61 | 318 | 0.0 | 3.0 | 0.00 | 0.06 | 0.06 | 89 | 1015.3 |
| 20260508105507 | 61 | 318 | 0.0 | 3.0 | 0.00 | 0.06 | 0.06 | 89 | 1016.0 |
| 20260508105008 | 60 | 333 | 1.0 | 3.0 | 0.00 | 0.06 | 0.06 | 88 | 1015.6 |
| 20260508104517 | 61 | 332 | 0.0 | 2.0 | 0.00 | 0.06 | 0.06 | 88 | 1015.1 |
| 20260508104007 | 61 | 332 | 0.0 | 2.0 | 0.00 | 0.06 | 0.06 | 88 | 1015.3 |
| 20260508103503 | 61 | 332 | 1.0 | 2.0 | 0.00 | 0.06 | 0.06 | 88 | 1015.5 |
| 20260508103011 | 61 | 226 | 0.0 | 1.0 | 0.00 | 0.06 | 0.06 | 88 | 1014.9 |
| 20260508102503 | 61 | 226 | 0.0 | 2.0 | 0.00 | 0.06 | 0.06 | 88 | 1014.4 |
| 20260508102004 | 61 | 226 | 0.0 | 2.0 | 0.00 | 0.06 | 0.06 | 88 | 1014.4 |
| 20260508101515 | 61 | 226 | 0.0 | 3.0 | 0.00 | 0.06 | 0.06 | 88 | 1014.7 |
| 20260508101007 | 61 | 226 | 1.0 | 3.0 | 0.00 | 0.06 | 0.06 | 88 | 1014.4 |
| 20260508100507 | 61 | 314 | 0.0 | 2.0 | 0.00 | 0.06 | 0.06 | 88 | 1014.2 |
| 20260508100020 | 61 | 314 | 0.0 | 2.0 | 0.00 | 0.06 | 0.06 | 88 | 1014.3 |
| 20260508095511 | 61 | 314 | 0.0 | 1.0 | 0.02 | 0.06 | 0.06 | 88 | 1014.2 |
| 20260508095007 | 61 | 314 | 0.0 | 2.0 | 0.02 | 0.06 | 0.06 | 88 | 1014.2 |
| 20260508094524 | 61 | 314 | 0.0 | 2.0 | 0.02 | 0.06 | 0.06 | 87 | 1014.2 |
| 20260508094009 | 61 | 314 | 0.0 | 2.0 | 0.02 | 0.06 | 0.06 | 87 | 1014.3 |
| 20260508093508 | 61 | 314 | 0.0 | 2.0 | 0.03 | 0.06 | 0.06 | 87 | 1014.3 |
| 20260508093035 | 61 | 314 | 0.0 | 2.0 | 0.03 | 0.06 | 0.06 | 87 | 1014.4 |
| 20260508092506 | 61 | 314 | 0.0 | 2.0 | 0.04 | 0.06 | 0.06 | 86 | 1014.5 |
| 20260508092007 | 61 | 314 | 0.0 | 2.0 | 0.04 | 0.06 | 0.06 | 86 | 1014.3 |
| 20260508091515 | 61 | 314 | 0.0 | 2.0 | 0.04 | 0.06 | 0.06 | 86 | 1014.4 |
| 20260508091006 | 61 | 314 | 0.0 | 2.0 | 0.04 | 0.06 | 0.06 | 85 | 1014.5 |
| 20260508090507 | 61 | 314 | 0.0 | 2.0 | 0.04 | 0.06 | 0.06 | 85 | 1014.7 |
| 20260508090019 | 61 | 314 | 0.0 | 2.0 | 0.06 | 0.06 | 0.06 | 85 | 1014.7 |
| 20260508085512 | 61 | 314 | 1.0 | 2.0 | 0.04 | 0.04 | 0.04 | 84 | 1014.5 |
| 20260508085006 | 61 | 314 | 0.0 | 4.0 | 0.04 | 0.04 | 0.04 | 84 | 1015.0 |
| 20260508084523 | 62 | 314 | 0.0 | 4.0 | 0.04 | 0.04 | 0.04 | 84 | 1015.3 |
| 20260508084006 | 62 | 306 | 1.0 | 2.0 | 0.04 | 0.04 | 0.04 | 83 | 1015.1 |
| 20260508083508 | 62 | 259 | 0.0 | 3.0 | 0.03 | 0.03 | 0.03 | 83 | 1014.4 |
| 20260508083021 | 62 | 175 | 1.0 | 3.0 | 0.03 | 0.03 | 0.03 | 81 | 1014.0 |
| 20260508082510 | 62 | 231 | 0.0 | 1.0 | 0.02 | 0.02 | 0.02 | 80 | 1014.7 |
| 20260508082011 | 62 | 231 | 0.0 | 2.0 | 0.02 | 0.02 | 0.02 | 79 | 1014.9 |
| 20260508081524 | 62 | 231 | 0.0 | 2.0 | 0.02 | 0.02 | 0.02 | 79 | 1015.6 |
| 20260508081010 | 63 | 231 | 0.0 | 2.0 | 0.02 | 0.02 | 0.02 | 78 | 1015.4 |
| 20260508080505 | 62 | 231 | 0.0 | 2.0 | 0.02 | 0.02 | 0.02 | 77 | 1015.3 |
| 20260508080014 | 62 | 232 | 0.0 | 2.0 | 0.00 | 0.00 | 0.00 | 76 | 1015.5 |
| 20260508075507 | 62 | 232 | 0.0 | 2.0 | 0.00 | 0.00 | 0.00 | 76 | 1016.0 |
| 20260508075006 | 62 | 232 | 0.0 | 2.0 | 0.00 | 0.00 | 0.00 | 76 | 1016.4 |
| 20260508074522 | 62 | 232 | 0.0 | 2.0 | 0.00 | 0.00 | 0.00 | 77 | 1016.4 |
| 20260508074006 | 62 | 232 | 0.0 | 2.0 | 0.00 | 0.00 | 0.00 | 77 | 1016.0 |
| 20260508073507 | 62 | 232 | 0.0 | 2.0 | 0.00 | 0.00 | 0.00 | 77 | 1016.0 |
| 20260508073028 | 62 | 232 | 0.0 | 0.0 | 0.00 | 0.00 | 0.00 | 76 | 1015.5 |
| 20260508072507 | 62 | 232 | 0.0 | 0.0 | 0.00 | 0.00 | 0.00 | 76 | 1015.6 |
| 20260508072010 | 62 | 232 | 0.0 | 0.0 | 0.00 | 0.00 | 0.00 | 76 | 1015.5 |
| 20260508071526 | 62 | 232 | 0.0 | 0.0 | 0.00 | 0.00 | 0.00 | 75 | 1015.6 |
| 20260508071009 | 62 | 232 | 0.0 | 0.0 | 0.00 | 0.00 | 0.00 | 75 | 1015.5 |
| 20260508070510 | 62 | 232 | 0.0 | 0.0 | 0.00 | 0.00 | 0.00 | 75 | 1015.6 |
| 20260508070025 | 62 | 232 | 0.0 | 0.0 | 0.00 | 0.00 | 0.00 | 75 | 1015.7 |
| 20260508065507 | 62 | 232 | 0.0 | 0.0 | 0.00 | 0.00 | 0.00 | 75 | 1015.7 |
| 20260508065008 | 62 | 232 | 0.0 | 0.0 | 0.00 | 0.00 | 0.00 | 75 | 1015.7 |
| 20260508064525 | 62 | 232 | 0.0 | 0.0 | 0.00 | 0.00 | 0.00 | 75 | 1015.9 |
| 20260508064011 | 62 | 232 | 0.0 | 0.0 | 0.00 | 0.00 | 0.00 | 75 | 1016.1 |
| 20260508063502 | 62 | 232 | 0.0 | 0.0 | 0.00 | 0.00 | 0.00 | 75 | 1016.1 |
| 20260508063009 | 62 | 232 | 0.0 | 0.0 | 0.00 | 0.00 | 0.00 | 74 | 1016.1 |
| 20260508062502 | 62 | 232 | 0.0 | 0.0 | 0.00 | 0.00 | 0.00 | 74 | 1016.1 |
| 20260508062003 | 62 | 232 | 0.0 | 0.0 | 0.00 | 0.00 | 0.00 | 74 | 1016.2 |
| 20260508061506 | 62 | 232 | 0.0 | 0.0 | 0.00 | 0.00 | 0.00 | 74 | 1016.3 |
| 20260508061007 | 62 | 232 | 0.0 | 0.0 | 0.00 | 0.00 | 0.00 | 73 | 1016.2 |
| 20260508060507 | 62 | 232 | 0.0 | 0.0 | 0.00 | 0.00 | 0.00 | 73 | 1016.1 |
| 20260508060011 | 62 | 232 | 0.0 | 0.0 | 0.00 | 0.00 | 0.00 | 73 | 1016.0 |
| 20260508055503 | 62 | 232 | 0.0 | 0.0 | 0.00 | 0.00 | 0.00 | 73 | 1016.0 |
| 20260508055003 | 62 | 232 | 0.0 | 0.0 | 0.00 | 0.00 | 0.00 | 72 | 1016.2 |
| 20260508054517 | 62 | 232 | 0.0 | 0.0 | 0.00 | 0.00 | 0.00 | 72 | 1016.0 |
| 20260508054004 | 62 | 232 | 0.0 | 0.0 | 0.00 | 0.00 | 0.00 | 72 | 1016.1 |
| 20260508053507 | 62 | 232 | 0.0 | 0.0 | 0.00 | 0.00 | 0.00 | 72 | 1016.1 |
| 20260508053022 | 63 | 232 | 0.0 | 0.0 | 0.00 | 0.00 | 0.00 | 72 | 1016.1 |
| 20260508052506 | 63 | 232 | 0.0 | 0.0 | 0.00 | 0.00 | 0.00 | 72 | 1016.2 |
| 20260508052003 | 63 | 232 | 0.0 | 0.0 | 0.00 | 0.00 | 0.00 | 71 | 1016.3 |
| 20260508051506 | 63 | 232 | 0.0 | 0.0 | 0.00 | 0.00 | 0.00 | 71 | 1016.2 |
| 20260508051004 | 63 | 232 | 0.0 | 0.0 | 0.00 | 0.00 | 0.00 | 71 | 1016.2 |
| 20260508050502 | 63 | 232 | 0.0 | 0.0 | 0.00 | 0.00 | 0.00 | 71 | 1016.2 |
| 20260508050008 | 63 | 232 | 0.0 | 0.0 | 0.00 | 0.00 | 0.00 | 71 | 1016.1 |
| 20260508045504 | 63 | 232 | 0.0 | 0.0 | 0.00 | 0.00 | 0.00 | 70 | 1016.1 |
| 20260508045004 | 63 | 232 | 0.0 | 0.0 | 0.00 | 0.00 | 0.00 | 70 | 1016.3 |
| 20260508044514 | 63 | 232 | 0.0 | 0.0 | 0.00 | 0.00 | 0.00 | 70 | 1016.2 |
| 20260508044006 | 63 | 232 | 0.0 | 0.0 | 0.00 | 0.00 | 0.00 | 70 | 1016.1 |